CAPE
0 0 0 0 0 0 0 0 0 0 0 0 0 0 0 0 0 23 207 328 395 428 390 373 329 362 396 528 857 889 984 1009 976 814 832 953 1067 1125 1151 749 732 837 804 686
0 0 0 0 0 0 0 0 0 0 0 0 0 0 0 0 0 0 44 226 327 349 389 437 385 457 482 477 571 740 841 928 985 958 901 958 1068 1079 1120 943 751 511 440 468
0 0 0 0 0 0 0 0 0 0 0 0 0 0 0 0 0 0 81 174 225 298 310 402 411 516 544 564 748 759 771 863 953 1030 1021 1063 1129 1122 1100 917 779 557 344 484
0 0 0 0 15 38 12 23 3 0 0 0 0 0 0 0 0 0 0 215 322 280 233 313 454 521 574 605 736 884 850 904 983 1127 1079 1060 1101 1127 1050 983 1020 877 811 701
0 0 0 7 17 25 0 91 18 0 0 0 0 0 0 0 0 0 0 0 0 4 135 226 392 521 590 644 742 867 934 976 1039 1168 1112 1099 1143 1256 1256 1228 1175 964 649 930
0 0 0 0 1 37 14 60 49 3 0 0 0 0 0 0 0 0 0 0 0 0 10 160 232 428 571 683 725 836 1001 1180 1349 1278 1224 1128 1138 1200 1237 1103 682 886 461 875
0 0 0 0 0 15 19 32 19 0 0 0 0 0 0 0 0 0 0 0 0 0 0 44 209 383 674 701 865 991 1213 1514 1478 1381 1391 1421 1526 1358 996 673 535 580 827 846
0 0 12 18 1 10 24 23 30 1 0 0 0 0 0 0 0 0 0 0 0 0 1 150 253 688 816 871 1018 1247 1521 1693 1587 1598 1596 1689 1711 1466 718 227 279 296 867 968
0 0 31 4 2 0 3 32 5 5 0 0 0 0 0 0 0 0 54 20 0 0 142 399 422 935 1031 1150 1299 1593 1852 1791 1746 1840 1823 1890 1671 1128 199 43 27 545 1082 1057
0 0 41 77 73 11 0 0 54 15 0 0 0 0 0 0 0 538 1694 385 448 417 601 982 1425 1557 1534 1646 1757 2002 1940 1832 1984 1993 2146 1980 1568 305 92 63 196 1024 1227 953
15 62 81 85 27 9 4 0 0 0 6 0 0 0 0 0 294 830 2768 2599 2140 2115 2258 2425 2526 2207 2018 2041 1988 1977 2000 1992 2333 2483 2143 1590 434 233 69 129 529 1453 1276 943
0 89 134 141 193 155 155 0 0 9 1 11 1 0 0 448 658 2401 2865 2392 2127 2043 1959 1923 2100 2080 2114 2223 2115 2054 2031 2361 2374 2094 1977 940 304 204 245 787 1432 1384 1181 953
0 18 29 51 118 150 164 228 20 0 0 12 4 0 112 1399 2159 2716 2690 2764 2470 2207 2144 2154 2154 2187 2415 2345 2258 2180 2195 2270 2114 2092 1898 1320 857 1090 1473 1762 1734 1300 1103 743
0 0 1 3 53 43 71 270 698 89 0 1 0 0 21 461 2276 2473 2513 2419 2689 2650 2280 2308 2314 2324 2314 2374 2370 2272 2087 1666 1829 2124 1602 1161 1525 1742 1688 1864 1527 1198 941 658
0 0 0 18 27 66 518 594 934 478 0 1 2 132 233 736 1577 2127 2324 1906 2198 2221 2612 2332 2316 2215 2527 2545 2445 2178 1467 1653 1680 1587 1741 1136 1405 1878 1901 1764 1320 1065 858 672
0 0 0 23 37 6 5 313 802 846 831 715 747 781 1076 1188 1467 1777 1753 1660 1374 1679 2305 2434 2063 1396 1516 2113 1645 924 1491 1390 1405 1577 1701 1180 1622 2069 1877 1712 1458 1196 969 792
0 0 0 5 10 0 371 491 398 681 846 857 660 940 1427 1050 1542 1566 1430 1224 1121 1202 1381 1574 1265 842 748 1093 1613 1592 1284 1135 1457 1576 1458 1159 1904 1979 1889 1795 1609 1428 1139 777
0 0 0 0 0 0 364 352 304 380 753 1126 1210 1268 1318 1127 1227 1072 1033 1031 934 694 565 611 456 148 1 29 1166 1589 1787 1612 1650 1726 1715 1642 1684 1909 1901 1880 1603 1569 1416 1162
59 0 0 0 0 8 617 254 614 424 386 1060 1413 1397 987 965 853 750 650 524 536 498 355 179 215 249 337 13 19 1179 1404 1504 1666 1864 2105 2020 1766 1738 1978 1984 1788 1543 1558 1315
78 14 0 0 12 17 405 522 813 515 100 457 1152 858 857 800 376 128 391 138 164 225 274 145 166 91 11 11 68 521 979 1709 2003 2451 2268 2236 2274 2123 2127 1967 1806 1620 1505 1387
92 104 0 7 6 207 466 767 819 134 41 353 500 684 672 533 252 212 693 643 233 34 183 86 110 161 112 77 138 546 1013 1485 2141 2354 2135 2176 1965 1558 1439 1543 1409 1116 955 944
27 22 39 59 229 312 243 759 454 111 204 81 84 51 55 10 420 829 712 1251 564 571 451 122 80 213 76 55 201 237 476 696 1337 1437 1377 1439 1129 741 579 534 567 189 175 510
36 18 12 0 1 26 135 29 171 313 165 278 227 15 0 411 613 598 419 436 416 315 288 188 139 106 31 7 42 26 4 0 1 1 0 0 0 0 4 31 112 209 464 255
1 49 38 18 4 11 98 133 98 90 190 452 394 73 281 462 412 185 18 3 6 2 7 0 0 0 0 0 0 0 0 0 0 0 0 0 0 0 0 0 3 5 3 100
3 19 7 1 0 8 25 0 0 0 0 1 377 223 311 220 78 31 22 38 9 4 0 0 0 0 0 0 0 0 0 0 0 0 0 0 0 0 0 0 0 0 1 6
47 19 0 3 7 26 0 6 146 0 0 5 8 24 7 95 73 42 4 24 28 11 0 0 0 0 0 0 0 0 0 0 0 0 0 0 0 0 0 0 1 2 2 20
CIN
-0 -0 -0 -0 -0 -0 -0 -0 -0 -0 -0 -0 -0 -0 -0 -0 -0 -310 -263 -344 -390 -455 -428 -406 -453 -512 -431 -331 -358 -310 -271 -239 -186 -236 -208 -145 -116 -76 -53 -104 -82 -66 -51 -38
-0 -0 -0 -0 -0 -0 -0 -0 -0 -0 -0 -0 -0 -0 -0 -0 -0 -0 -335 -263 -324 -284 -352 -326 -487 -528 -487 -329 -210 -405 -366 -306 -218 -154 -230 -190 -123 -91 -64 -56 -73 -88 -65 -129
-0 -0 -0 -3 -0 -0 -0 -0 -0 -0 -0 -0 -0 -0 -0 -0 -0 -0 -272 -223 -168 -253 -267 -407 -398 -535 -469 -392 -206 -189 -318 -392 -287 -189 -214 -175 -122 -87 -57 -53 -36 -53 -149 -140
-0 -0 -0 -0 -82 -76 -56 -73 -52 -0 -0 -0 -0 -0 -0 -0 -0 -0 -3 -183 -136 -116 -198 -466 -425 -563 -530 -355 -213 -175 -157 -435 -328 -278 -218 -178 -167 -112 -81 -35 -29 -26 -33 -98
-0 -0 -0 -113 -114 -121 -0 -63 -69 -2 -0 -0 -0 -0 -0 -0 -0 -0 -0 -0 -0 -285 -358 -302 -573 -427 -512 -370 -252 -205 -232 -435 -401 -316 -232 -152 -127 -48 -41 -45 -40 -31 -80 -77
-0 -0 -0 -0 -38 -9 -13 -17 -33 -27 -0 -0 -0 -0 -0 -0 -0 -0 -0 -0 -0 -0 -335 -424 -413 -460 -506 -356 -305 -510 -483 -442 -374 -319 -237 -177 -48 -36 -43 -43 -53 -48 -77 -64
-0 -0 -0 -0 -0 -12 -5 -9 -17 -0 -0 -0 -0 -0 -0 -0 -0 -0 -0 -0 -0 -0 -0 -594 -502 -599 -604 -469 -566 -593 -522 -384 -359 -295 -214 -137 -51 -48 -86 -99 -87 -52 -46 -26
-0 -0 -7 -11 -14 -4 -5 -16 -2 -0 -0 -0 -0 -0 -0 -0 -0 -0 -0 -0 -0 -0 -46 -614 -547 -749 -623 -633 -617 -570 -468 -372 -340 -259 -166 -94 -65 -78 -102 -47 -149 -133 -51 -12
-0 -0 -17 -47 -60 -14 -60 -12 -72 -32 -0 -0 -0 -0 -0 -0 -0 -0 -22 -107 -0 -0 -418 -535 -468 -690 -646 -620 -634 -530 -421 -367 -308 -203 -131 -76 -84 -25 -112 -169 -164 -182 -52 -23
-0 -0 -74 -33 -35 -32 -5 -0 -12 -15 -0 -0 -0 -0 -0 -0 -0 -96 -464 -679 -727 -826 -893 -835 -706 -626 -586 -574 -498 -427 -386 -366 -271 -173 -118 -55 -40 -73 -214 -258 -296 -62 -35 -42
-69 -72 -67 -55 -47 -36 -65 -0 -0 -8 -7 -0 -0 -0 -0 -0 -61 -236 -289 -336 -447 -487 -473 -453 -418 -463 -474 -432 -389 -361 -313 -282 -187 -126 -67 -31 -295 -267 -288 -119 -249 -64 -54 -64
-3 -48 -45 -53 -35 -45 -35 -0 -0 -3 -1 -11 -8 -0 -0 -336 -159 -234 -273 -390 -448 -472 -484 -512 -468 -453 -374 -332 -287 -245 -213 -170 -123 -68 -46 -181 -197 -594 -513 -279 -75 -62 -95 -109
-6 -28 -60 -47 -22 -18 -27 -52 -32 -3 -0 -6 -5 -0 -366 -215 -200 -151 -157 -176 -330 -445 -420 -422 -425 -397 -323 -303 -273 -209 -173 -95 -50 -53 -42 -214 -389 -288 -140 -92 -55 -91 -96 -171
-0 -0 -48 -82 -38 -44 -17 -64 -104 -49 -0 -5 -0 -0 -131 -343 -104 -133 -136 -163 -158 -167 -262 -329 -341 -285 -280 -251 -230 -188 -111 -85 -88 -58 -205 -267 -235 -145 -114 -62 -88 -127 -141 -199
-0 -0 -0 -42 -48 -86 -33 -130 -170 -97 -4 -20 -84 -112 -140 -352 -172 -65 -96 -144 -168 -208 -171 -211 -169 -206 -259 -223 -201 -208 -297 -268 -100 -188 -153 -235 -259 -128 -66 -66 -107 -153 -178 -185
-0 -0 -0 -65 -38 -86 -92 -30 -115 -263 -264 -245 -152 -309 -354 -275 -181 -98 -56 -67 -174 -213 -107 -125 -118 -154 -94 -91 -325 -383 -224 -234 -244 -173 -139 -169 -152 -80 -84 -62 -86 -102 -154 -181
-8 -0 -0 -43 -67 -0 -73 -128 -107 -122 -203 -277 -114 -229 -191 -285 -146 -103 -65 -102 -58 -131 -133 -91 -135 -120 -136 -43 -54 -137 -221 -233 -160 -158 -159 -212 -90 -63 -54 -35 -55 -72 -110 -166
-0 -0 -4 -0 -0 -0 -69 -144 -231 -126 -153 -181 -251 -238 -211 -158 -119 -109 -85 -57 -66 -48 -78 -221 -221 -57 -66 -11 -12 -19 -51 -49 -48 -70 -80 -54 -68 -18 -13 -8 -35 -36 -38 -51
-87 -0 -0 -0 -0 -73 -96 -83 -102 -170 -95 -167 -132 -98 -158 -154 -145 -75 -98 -78 -63 -34 -43 -33 -239 -104 -221 -375 -2 -50 -57 -52 -23 -26 -5 -9 -6 -14 -3 -3 -4 -15 -11 -15
-48 -64 -0 -0 -68 -111 -103 -100 -133 -259 -234 -326 -122 -105 -98 -107 -94 -64 -300 -109 -140 -90 -83 -72 -356 -241 -161 -1 -21 -21 -25 -49 -32 -0 -0 -0 -0 -0 -0 -0 -0 -0 -0 -1
-15 -41 -0 -113 -32 -113 -126 -135 -133 -98 -81 -191 -136 -96 -89 -82 -93 -232 -156 -224 -267 -327 -341 -401 -344 -184 -131 -24 -5 -12 -17 -40 -3 -0 -0 -0 -1 -9 -18 -2 -2 -3 -3 -6
-27 -21 -29 -32 -44 -50 -92 -132 -89 -102 -153 -249 -305 -118 -320 -460 -193 -68 -54 -15 -91 -76 -64 -205 -232 -16 -82 -16 -0 -27 -59 -81 -38 -20 -16 -5 -17 -68 -67 -64 -36 -86 -64 -15
-4 -9 -17 -0 -2 -155 -185 -300 -199 -112 -100 -129 -153 -300 -0 -103 -32 -14 -22 -34 -40 -47 -51 -52 -57 -63 -73 -31 -11 -241 -267 -34 -29 -27 -20 -36 -0 -6 -32 -206 -55 -19 -3 -26
-13 -96 -6 -11 -60 -195 -174 -166 -173 -162 -101 -59 -57 -115 -29 -6 -0 -16 -55 -56 -52 -90 -239 -0 -0 -0 -0 -0 -0 -0 -0 -0 -0 -0 -0 -0 -0 -0 -0 -0 -0 -0 -0 -2
-19 -75 -0 -2 -0 -201 -202 -0 -0 -0 -0 -10 -10 -26 -19 -10 -5 -1 -9 -6 -17 -9 -0 -0 -3 -0 -0 -0 -0 -0 -0 -0 -0 -0 -0 -0 -0 -0 -0 -0 -0 -0 -0 -0
-66 -35 -0 -63 -96 -135 -0 -22 -19 -0 -0 -16 -0 -14 -6 -41 -9 -6 -9 -18 -8 -7 -0 -0 -0 -0 -0 -0 -0 -0 -0 -0 -0 -0 -0 -0 -0 -0 -0 -0 -0 -19 -2 -0
Wind_Speed
nan nan nan nan nan nan nan nan nan nan nan nan nan nan nan nan nan nan 12 6 4 15 9 18 22 23 23 24 27 31 34 32 29 19 14 15 20 19 17 19 20 13 12 12
nan nan nan nan nan nan nan nan nan nan nan nan nan nan nan nan nan nan nan 9 5 8 13 15 18 21 22 24 23 28 34 36 29 25 18 15 15 15 19 21 21 22 13 11
nan nan nan nan nan nan nan nan nan nan nan nan nan nan nan nan nan nan nan 14 11 5 13 13 16 20 21 25 28 27 32 38 32 26 23 16 14 15 18 21 23 24 19 12
nan nan nan nan nan nan nan nan nan nan nan nan nan nan nan nan nan nan nan 18 11 10 15 22 18 22 28 29 26 26 27 36 32 31 27 22 20 23 20 27 29 30 24 16
nan nan nan nan nan nan nan nan nan nan nan nan nan nan nan nan nan nan nan nan nan nan 18 21 17 23 26 28 30 33 32 33 31 32 27 24 22 20 30 34 28 29 24 17
nan nan nan nan nan nan nan nan nan nan nan nan nan nan nan nan nan nan nan nan nan nan nan 24 13 17 21 28 29 31 35 32 31 28 24 26 24 31 31 29 22 26 17 12
nan nan nan nan nan nan nan nan nan nan nan nan nan nan nan nan nan nan nan nan nan nan nan nan 18 16 19 24 30 32 36 29 28 26 22 26 28 30 36 30 20 26 19 8
nan nan nan nan nan nan nan nan nan nan nan nan nan nan nan nan nan nan nan nan nan nan nan 22 14 13 14 24 29 28 31 28 26 22 21 26 22 29 38 22 19 26 13 3
nan nan nan nan nan nan nan nan nan nan nan nan nan nan nan nan nan nan nan nan nan nan 27 29 19 15 18 24 27 29 30 27 24 19 20 19 22 23 28 nan nan 8 2 4
nan nan nan nan nan nan nan nan nan nan nan nan nan nan nan nan nan 31 34 34 33 33 39 38 30 20 20 26 25 27 28 27 24 22 18 21 20 15 nan nan 11 10 11 10
nan nan nan nan nan nan nan nan nan nan nan nan nan nan nan nan 12 22 26 25 24 27 32 32 28 29 31 31 27 26 26 27 24 21 16 16 16 18 nan 12 14 17 19 19
nan nan 26 15 16 23 30 nan nan nan nan nan nan nan nan 11 9 19 19 19 28 32 32 25 33 37 33 32 30 31 27 26 20 17 13 13 11 14 17 17 14 17 20 22
nan nan nan nan 17 21 25 29 nan nan nan nan nan nan 21 23 21 20 27 30 17 18 20 30 32 28 31 34 38 40 33 27 20 13 12 12 10 13 16 17 16 16 17 21
nan nan nan nan nan nan nan 16 26 nan nan nan nan nan nan 28 25 27 30 29 36 32 31 32 28 32 32 29 32 41 41 40 22 10 9 12 13 14 15 16 19 19 18 21
nan nan nan nan nan nan 13 23 28 26 nan nan nan 29 21 29 32 36 28 31 35 37 37 31 38 26 25 28 23 34 35 40 23 10 7 9 15 18 15 18 19 20 22 21
nan nan nan nan nan nan nan 26 43 29 29 32 40 24 31 39 42 43 38 37 44 38 39 42 47 43 40 26 31 29 31 33 23 11 9 10 16 20 22 22 25 23 26 24
nan nan nan nan nan nan 35 42 17 37 26 28 22 34 40 45 41 40 36 40 42 44 50 48 45 52 56 43 28 35 27 27 17 15 14 14 16 19 22 23 27 28 26 26
nan nan nan nan nan nan 25 30 30 25 24 25 40 40 38 40 38 39 28 29 32 36 43 50 55 64 nan nan 46 38 42 28 21 19 23 20 17 19 22 25 27 26 27 25
nan nan nan nan nan nan 28 13 15 15 16 29 23 25 32 28 32 36 30 26 29 36 39 45 55 53 60 nan nan 43 38 33 28 29 28 22 23 23 25 26 26 28 27 29
nan nan nan nan nan nan 15 13 6 6 9 25 19 22 25 24 41 31 35 32 33 37 33 41 52 nan nan nan nan 50 48 39 37 31 31 31 30 27 27 25 28 32 33 35
nan 19 nan nan nan 10 16 7 9 13 nan 18 21 22 24 26 30 24 19 26 30 nan 35 nan 47 50 52 nan 27 34 44 35 26 31 32 32 29 29 30 26 29 33 33 34
nan nan nan nan 21 15 19 15 19 17 19 nan nan nan nan nan 36 37 33 38 46 45 44 48 nan 49 nan nan 20 21 21 20 23 30 29 29 32 35 34 31 30 32 35 34
nan nan nan nan nan nan 18 nan 16 17 19 25 26 nan nan 36 37 38 39 41 44 44 47 39 43 52 nan nan nan nan nan nan nan nan nan nan nan nan nan nan 31 29 31 30
nan nan nan nan nan nan nan 18 nan nan 16 19 16 nan 34 31 33 38 nan nan nan nan nan nan nan nan nan nan nan nan nan nan nan nan nan nan nan nan nan nan nan nan nan 28
nan nan nan nan nan nan nan nan nan nan nan nan 29 33 31 33 nan nan nan nan nan nan nan nan nan nan nan nan nan nan nan nan nan nan nan nan nan nan nan nan nan nan nan nan
nan nan nan nan nan nan nan nan 17 nan nan nan nan nan nan nan nan nan nan nan nan nan nan nan nan nan nan nan nan nan nan nan nan nan nan nan nan nan nan nan nan nan nan nan
Wind_Direction
nan nan nan nan nan nan nan nan nan nan nan nan nan nan nan nan nan nan 254 272 27 36 340 343 340 340 332 345 356 355 341 348 344 342 355 354 357 348 352 357 7 344 332 327
nan nan nan nan nan nan nan nan nan nan nan nan nan nan nan nan nan nan nan 226 63 265 303 333 335 328 325 330 359 356 340 337 343 336 340 339 333 337 327 331 345 355 323 311
nan nan nan nan nan nan nan nan nan nan nan nan nan nan nan nan nan nan nan 258 241 266 300 329 332 335 308 323 336 348 341 331 333 327 318 317 310 307 313 322 327 337 326 306
nan nan nan nan nan nan nan nan nan nan nan nan nan nan nan nan nan nan nan 260 277 297 298 324 329 313 335 315 323 329 329 322 327 326 331 339 322 319 324 324 316 319 315 291
nan nan nan nan nan nan nan nan nan nan nan nan nan nan nan nan nan nan nan nan nan nan 290 318 329 322 334 302 318 320 320 317 327 329 338 334 312 316 324 321 311 315 301 274
nan nan nan nan nan nan nan nan nan nan nan nan nan nan nan nan nan nan nan nan nan nan nan 304 298 274 306 288 298 306 314 318 324 330 335 336 326 331 323 322 302 308 282 257
nan nan nan nan nan nan nan nan nan nan nan nan nan nan nan nan nan nan nan nan nan nan nan nan 282 288 303 293 299 304 309 315 323 328 331 322 334 333 329 316 277 277 263 254
nan nan nan nan nan nan nan nan nan nan nan nan nan nan nan nan nan nan nan nan nan nan nan 257 257 291 285 280 292 307 308 315 322 323 323 330 331 340 346 334 304 247 227 257
nan nan nan nan nan nan nan nan nan nan nan nan nan nan nan nan nan nan nan nan nan nan 243 246 252 279 280 279 287 306 309 311 317 315 314 328 344 350 358 nan nan 86 256 1
nan nan nan nan nan nan nan nan nan nan nan nan nan nan nan nan nan 213 223 240 243 242 234 246 248 246 255 267 277 295 300 307 306 302 313 333 350 356 nan nan 21 10 348 342
nan nan nan nan nan nan nan nan nan nan nan nan nan nan nan nan 181 200 223 238 237 240 244 247 244 244 258 257 268 284 288 291 294 297 316 320 0 3 nan 334 360 7 350 340
nan nan 278 279 250 249 259 nan nan nan nan nan nan nan nan 191 148 201 240 249 245 238 245 247 248 256 265 263 264 267 262 276 282 280 300 316 348 346 2 7 342 353 354 345
nan nan nan nan 253 244 239 229 nan nan nan nan nan nan 223 221 215 193 202 192 208 260 256 252 269 287 286 280 279 276 257 249 239 259 286 302 332 343 354 355 2 359 351 352
nan nan nan nan nan nan nan 224 240 nan nan nan nan nan nan 215 215 209 210 217 225 220 213 243 265 271 265 277 295 282 270 265 261 248 285 305 319 324 333 336 333 335 342 340
nan nan nan nan nan nan 236 233 191 267 nan nan nan 264 236 225 221 227 235 218 237 237 238 247 207 228 255 256 289 284 286 290 282 285 280 296 297 302 311 320 326 331 330 335
nan nan nan nan nan nan nan 240 196 219 245 251 251 250 239 236 233 233 234 244 244 240 243 244 242 222 215 228 280 282 275 255 270 274 272 260 284 292 308 320 321 325 327 326
nan nan nan nan nan nan 266 266 177 188 197 222 243 247 256 245 248 238 236 248 251 246 251 246 256 242 234 209 224 256 245 237 239 259 259 249 264 288 303 313 316 324 324 317
nan nan nan nan nan nan 275 232 209 172 193 224 245 252 272 263 271 245 243 238 258 259 253 263 267 260 nan nan 199 213 221 217 222 235 242 247 264 286 294 302 311 316 308 313
nan nan nan nan nan nan 257 302 223 183 206 237 252 252 266 262 259 240 235 239 238 250 257 262 267 277 282 nan nan 219 198 200 206 218 241 248 263 276 284 297 306 300 297 295
nan nan nan nan nan nan 278 335 118 249 235 225 236 263 268 241 237 218 221 231 247 246 265 270 290 nan nan nan nan 196 215 209 206 217 234 246 252 265 278 285 281 284 289 293
nan 229 nan nan nan 230 261 255 301 270 nan 242 257 265 271 280 285 288 253 263 273 nan 270 nan 278 278 280 nan 191 212 214 197 199 219 233 247 259 272 276 279 284 288 287 287
nan nan nan nan 232 241 239 250 260 266 246 nan nan nan nan nan 281 283 283 281 276 275 277 279 nan 288 nan nan 190 202 189 192 223 236 245 256 263 269 278 279 282 286 283 281
nan nan nan nan nan nan 262 nan 262 250 249 248 266 nan nan 284 281 279 272 281 269 269 275 293 291 296 nan nan nan nan nan nan nan nan nan nan nan nan nan nan 288 286 288 288
nan nan nan nan nan nan nan 254 nan nan 250 242 253 nan 264 276 277 278 nan nan nan nan nan nan nan nan nan nan nan nan nan nan nan nan nan nan nan nan nan nan nan nan nan 282
nan nan nan nan nan nan nan nan nan nan nan nan 267 270 268 275 nan nan nan nan nan nan nan nan nan nan nan nan nan nan nan nan nan nan nan nan nan nan nan nan nan nan nan nan
nan nan nan nan nan nan nan nan 272 nan nan nan nan nan nan nan nan nan nan nan nan nan nan nan nan nan nan nan nan nan nan nan nan nan nan nan nan nan nan nan nan nan nan nan